Regional Weather Roundup
Issued by NWS

Home | Current Version | Previous Version | Text Only | Print | Product List | Glossary Off
Versions: 1 2 3 4 5 6 7 8 9 10 11 12 13 14 15 16 17 18 19 20 21 22 23 24 25 26 27 28 29 30 31 32 33 34 35 36 37 38 39 40 41 42 43 44 45 46 47 48 49 50

000
ASUS45 KSLC 230410
RWRUT

UTAH REGIONAL WEATHER ROUNDUP
NATIONAL WEATHER SERVICE SALT LAKE CITY UT
1000 PM MDT WED MAR 22 2017

UTZ001>011-023>025-230500-

NORTHERN UTAH

CITY           SKY/WX    TMP DP  RH WIND       PRES   REMARKS
BRIGHAM CITY     N/A     52  41  68 E12       29.76F
HILL AFB       LGT RAIN  48  41  76 E7        29.76F
LOGAN          LGT RAIN  48  45  89 W3        29.81S
OGDEN          CLOUDY    50  42  74 NE9       29.75F
SALT LAKE CITY CLOUDY    53  44  71 N3        29.74F
WENDOVER       CLOUDY    46  30  53 NW28G38   29.78F
HEBER CITY     LGT RAIN  46  37  71 CALM      29.79S

$$

UTZ011>015-024>027-230500-

CENTRAL/NORTHEAST UTAH

CITY           SKY/WX    TMP DP  RH WIND       PRES   REMARKS
PROVO AIRPORT  CLOUDY    55  40  56 SE13G20   29.75R
MOAB/CANYONLAN CLOUDY    59  39  47 W21       29.78R
DELTA          MOCLDY    52  34  50 S12       29.75F
PRICE          LGT RAIN  45  44  97 E8        29.84F
ROOSEVELT      LGT RAIN  48  41  76 W7        29.86F
VERNAL         LGT RAIN  49  42  77 N7        29.83S

$$

UTZ013>016-019>022-027-230500-

SOUTHERN UTAH

CITY           SKY/WX    TMP DP  RH WIND       PRES   REMARKS
BRYCE CANYON   LGT RAIN  36  33  89 W9        29.87S WCI  29
CEDAR CITY     RAIN      41  38  89 SW15G21   29.87R FOG
MILFORD        CLOUDY   N/A N/A N/A S18       29.78S
ST GEORGE      CLOUDY    53  45  74 E10       29.81F
HANKSVILLE     CLOUDY    52  43  71 W7        29.83S
BLANDING       CLOUDY    55  29  36 W5        29.90F

$$

REGIONAL REPORTS     COLORADO/ARIZONA

CITY           SKY/WX    TMP DP  RH WIND       PRES   REMARKS
CRAIG, CO      CLOUDY    51  31  46 W6        29.87F
GRAND JUNCTION CLOUDY    60  27  28 E6        29.76F
RIFLE, CO      CLOUDY    53  35  50 SW3       29.83F
MONTROSE, CO   CLOUDY    52  29  41 S3        29.85F
CORTEZ, CO     CLOUDY    60  20  21 SW15G28   29.87F
COLORADO CITY  LGT RAIN  43  41  93 NE6       29.90F
PAGE, AZ       CLOUDY    57  32  38 W13G22    29.79R
GRAND CANYON   LGT SNOW  34  34 100 SW20G30   29.95R FOG     WCI  23
KINGMAN, AZ    CLOUDY    51  37  58 NW3       29.85S
FLAGSTAFF, AZ  TSTM      36  34  92 W16G25    29.94R FOG     WCI  26

$$

REGIONAL REPORTS    NEVADA/IDAHO/WYOMING

CITY           SKY/WX    TMP DP  RH WIND       PRES   REMARKS
LAS VEGAS, NV  CLOUDY    63  25  23 SW12      29.75R
ELY, NY        CLOUDY    40  27  59 W16       29.82R WCI  31
ELKO, NV       LGT SNOW  33  32  96 CALM      29.92F FOG
POCATELLO, ID  MOCLDY    43  41  93 MISG      29.83R
BURLEY, ID     CLOUDY    45  35  68 S16       29.87R
FORT BRIDGER,  CLOUDY    42  37  82 N5        29.90R
EVANSTON, WY   CLOUDY    41  34  76 E6        29.85S
ROCK SPRINGS,  LGT RAIN  44  39  82 NW3       29.87S
KEMMERER, WY   LGT RAIN  36  34  93 SW10      29.88S WCI  28

$$



USA.gov is the U.S. government's official web portal to all federal, state and local government web resources and services.